EW2817 Weather Reports


time (UTC)temp
C
wind
direction
speed
KPH
gust
KPH
rain 1hr
cm
rain 24hr
cm
rain mn
cm
humidity
%
barometer
mb
20260509163339 22 0 0.0 0.0 0.00 0.00 0.00 63 988.6
20260509161837 22 0 0.0 0.0 0.00 0.00 0.00 65 988.5
20260509160332 22 0 0.0 0.0 0.00 0.00 0.00 65 988.6
20260509154831 22 0 0.0 0.0 0.00 0.00 0.00 66 988.5
20260509150326 20 0 0.0 0.0 0.00 0.00 0.00 70 988.6
20260509143325 18 0 0.0 0.0 0.00 0.00 0.00 76 989.3
20260509141824 18 0 0.0 0.0 0.00 0.00 0.00 79 989.3
20260509140324 17 0 0.0 0.0 0.00 0.00 0.00 82 989.8
20260509134825 17 0 0.0 0.0 0.00 0.00 0.00 84 990.3
20260509133324 16 0 0.0 0.0 0.00 0.00 0.00 89 990.2
20260509131819 15 0 0.0 0.0 0.00 0.00 0.00 92 990.3
20260509130316 14 0 0.0 0.0 0.00 0.00 0.00 93 990.2
20260509123314 13 0 0.0 0.0 0.00 0.00 0.00 95 990.1
20260509121813 12 0 0.0 0.0 0.00 0.00 0.00 95 989.7
20260509120312 12 0 0.0 0.0 0.00 0.00 0.00 95 989.8
20260509114812 11 0 0.0 0.0 0.00 0.00 0.00 95 990.2
20260509111809 11 0 0.0 0.0 0.00 0.00 0.00 95 990.0
20260509110308 11 0 0.0 0.0 0.00 0.00 0.00 94 989.7
20260509103308 11 0 0.0 0.0 0.00 0.00 0.00 94 989.0
20260509101806 11 0 0.0 0.0 0.00 0.00 0.00 94 989.1
20260509100305 11 0 0.0 0.0 0.00 0.00 0.00 94 989.2
20260509093302 11 0 0.0 0.0 0.00 0.00 0.00 93 989.4
20260509091802 11 0 0.0 0.0 0.00 0.00 0.00 92 989.5
20260509090300 11 0 0.0 0.0 0.00 0.00 0.00 92 989.5
20260509084802 11 0 0.0 0.0 0.00 0.00 0.00 92 989.6
20260509083300 11 0 0.0 0.0 0.00 0.00 0.00 91 989.8
20260509081803 11 0 0.0 0.0 0.00 0.00 0.00 90 989.9
20260509080256 12 0 0.0 0.0 0.00 0.00 0.00 89 990.0
20260509074755 12 0 0.0 0.0 0.00 0.00 0.00 88 989.8
20260509073256 12 0 0.0 0.0 0.00 0.00 0.00 87 989.8
20260509071755 12 0 0.0 0.0 0.00 0.00 0.00 86 990.0
20260509070255 12 0 0.0 0.0 0.00 0.00 0.00 86 989.9
20260509064753 13 0 0.0 0.0 0.00 0.00 0.00 85 990.0
20260509063253 13 0 0.0 0.0 0.00 0.00 0.00 84 990.3
20260509061753 13 0 0.0 0.0 0.00 0.00 0.00 83 990.7
20260509060254 13 0 0.0 0.0 0.00 0.00 0.00 81 990.7
20260509054753 13 0 0.0 0.0 0.00 0.00 0.00 81 990.9
20260509053253 13 0 0.0 0.0 0.00 0.00 0.00 80 991.1
20260509043250 13 0 0.0 0.0 0.00 0.00 0.00 76 991.2
20260509041749 13 0 0.0 0.0 0.00 0.00 0.00 76 991.1
20260509040247 14 0 0.0 0.0 0.00 0.00 0.00 73 991.2
20260509033246 14 0 0.0 0.0 0.00 0.00 0.00 72 991.2
20260509031745 14 0 0.0 0.0 0.00 0.00 0.00 71 991.2
20260509030242 14 0 0.0 0.0 0.00 0.00 0.00 69 991.4
20260509024742 14 0 0.0 0.0 0.00 0.00 0.00 70 991.6
20260509023239 14 0 0.0 0.0 0.00 0.00 0.00 69 991.8
20260509020238 15 0 0.0 0.0 0.00 0.00 0.00 69 991.8
20260509013237 15 0 0.0 0.0 0.00 0.00 0.00 70 991.7
20260509011732 15 0 0.0 0.0 0.00 0.00 0.00 69 991.5
20260509010232 15 0 0.0 0.0 0.00 0.00 0.00 67 991.4
20260509004732 15 0 0.0 0.0 0.00 0.00 0.00 68 991.1
20260509003231 16 0 0.0 0.0 0.00 0.00 0.00 67 991.1
20260509001728 16 0 0.0 0.0 0.00 0.00 0.00 65 990.9
20260509000227 17 0 0.0 0.0 0.00 0.00 0.00 62 991.0
20260508234728 18 0 0.0 0.0 0.00 0.00 0.00 63 991.1
20260508233228 18 0 0.0 0.0 0.00 0.00 0.00 59 990.9
20260508231726 18 0 0.0 0.0 0.00 0.00 0.00 58 990.9
20260508224725 19 0 0.0 0.0 0.00 0.00 0.00 52 990.7
20260508223224 19 0 0.0 0.0 0.00 0.00 0.00 54 990.6
20260508221725 20 0 0.0 0.0 0.00 0.00 0.00 44 990.5
20260508220222 20 0 0.0 0.0 0.00 0.00 0.00 52 990.7
20260508214717 20 0 0.0 0.0 0.00 0.00 0.00 46 990.5
20260508211716 20 0 0.0 0.0 0.00 0.00 0.00 44 990.6
20260508210216 20 0 0.0 0.0 0.00 0.00 0.00 41 990.7
20260508204714 20 0 0.0 0.0 0.00 0.00 0.00 43 991.1
20260508203213 20 0 0.0 0.0 0.00 0.00 0.00 41 991.1
20260508201712 20 0 0.0 0.0 0.00 0.00 0.00 44 991.0
20260508194710 21 0 0.0 0.0 0.00 0.00 0.00 40 991.3
20260508191727 21 0 0.0 0.0 0.00 0.03 0.00 43 991.7
20260508190211 21 0 0.0 0.0 0.00 0.05 0.00 43 991.9
20260508184712 21 0 0.0 0.0 0.00 0.10 0.00 44 992.1
20260508183212 21 0 0.0 0.0 0.00 0.13 0.00 44 992.3
20260508181703 21 0 0.0 0.0 0.00 0.18 0.00 44 992.4
20260508174701 21 0 0.0 0.0 0.00 0.25 0.00 47 992.9
20260508173159 21 0 0.0 0.0 0.00 0.28 0.00 46 993.0
20260508171659 20 0 0.0 0.0 0.00 0.38 0.00 44 993.1
20260508170157 21 0 0.0 0.0 0.00 0.41 0.00 48 993.3